Location: Unspecified
(0.0000°N, 0.0000°E)
Time: 19:08:18
(UTC+00:00)

Vanguard 3 - Pass Details

Date: 26 September 2023
Orbit: 507 x 3241 km, 33.3° (Epoch: 29 November)

Event Time Altitude Azimuth Distance (km) Brightness Sun altitude
Rises 06:40:02 0° 248° (WSW) 3,918 10.1 12.1°
Reaches altitude 10° 06:43:57 10° 226° (SW) 3,418 10.0 13.1°
Maximum altitude 06:48:52 15° 192° (SSW) 3,552 10.4 14.3°
Drops below altitude 10° 06:55:18 10° 160° (SSE) 4,655 11.4 15.9°
Sets 07:02:32 0° 141° (SE) 6,299 12.3 17.8°
